WX4ET Weather Reports


time (UTC)temp
C
wind
direction
speed
KPH
gust
KPH
rain 1hr
cm
rain 24hr
cm
rain mn
cm
humidity
%
barometer
mb
20260906082946 21 119 0.0 0.0 0.00 0.00 0.00 99 1015.3
20260906082442 21 121 0.0 0.0 0.00 0.00 0.00 99 1015.5
20260906081937 21 122 0.0 0.0 0.00 0.00 0.00 99 1015.5
20260906081432 21 124 0.0 0.0 0.00 0.00 0.00 99 1015.7
20260906080929 21 124 0.0 0.0 0.00 0.00 0.00 99 1015.6
20260906080425 21 120 0.0 0.0 0.00 0.00 0.00 99 1015.7
20260906075925 21 121 0.0 0.0 0.00 0.00 0.00 99 1015.7
20260906075420 21 137 0.0 0.0 0.00 0.00 0.00 99 1015.7
20260906074915 21 137 0.0 0.0 0.00 0.00 0.00 99 1015.8
20260906074409 21 137 0.0 0.0 0.00 0.00 0.00 99 1015.5
20260906073908 22 137 0.0 0.0 0.00 0.00 0.00 99 1015.8
20260906073403 22 137 0.0 0.0 0.00 0.00 0.00 99 1016.0
20260906072859 21 115 0.0 0.0 0.00 0.00 0.00 99 1016.1
20260906072354 21 116 0.0 0.0 0.00 0.00 0.00 99 1015.9
20260906071850 21 103 0.0 0.0 0.00 0.00 0.00 99 1016.1
20260906071345 22 101 0.0 0.0 0.00 0.00 0.00 99 1016.0
20260906070842 22 134 0.0 0.0 0.00 0.00 0.00 99 1015.9
20260906070337 21 120 0.0 0.0 0.00 0.00 0.00 99 1016.1
20260906065833 22 121 0.0 0.0 0.00 0.00 0.00 99 1016.1
20260906065327 22 121 0.0 0.0 0.00 0.00 0.00 99 1016.1
20260906064823 22 125 0.0 0.0 0.00 0.00 0.00 99 1016.2
20260906064319 22 124 0.0 0.0 0.00 0.00 0.00 99 1016.1
20260906063819 22 124 0.0 0.0 0.00 0.00 0.00 99 1015.9
20260906063315 22 124 0.0 0.0 0.00 0.00 0.00 99 1016.1
20260906062809 22 125 0.0 0.0 0.00 0.00 0.00 99 1015.9
20260906062309 22 121 0.0 0.0 0.00 0.00 0.00 99 1016.0
20260906061804 22 114 0.0 0.0 0.00 0.00 0.00 99 1016.0
20260906061301 22 112 0.0 0.0 0.00 0.00 0.00 99 1015.9
20260906060755 22 84 0.0 0.0 0.00 0.00 0.00 99 1016.1
20260906060253 22 125 0.0 0.0 0.00 0.00 0.00 99 1016.1
20260906055748 22 124 0.0 0.0 0.00 0.00 0.00 99 1016.3
20260906055243 22 106 0.0 0.0 0.00 0.00 0.00 99 1016.4
20260906054739 22 101 0.0 0.0 0.00 0.00 0.00 99 1016.4
20260906054234 22 120 0.0 0.0 0.00 0.00 0.00 99 1016.4
20260906053731 22 117 0.0 0.0 0.00 0.00 0.00 99 1016.3
20260906053226 22 136 0.0 0.0 0.00 0.00 0.00 99 1016.4
20260906052721 22 135 0.0 0.0 0.00 0.00 0.00 99 1016.9
20260906052217 22 133 0.0 0.0 0.00 0.00 0.00 99 1016.6
20260906051714 22 116 0.0 0.0 0.00 0.00 0.00 99 1016.4
20260906051213 22 104 0.0 0.0 0.00 0.00 0.00 99 1016.4
20260906050709 22 143 0.0 0.0 0.00 0.00 0.00 99 1016.4
20260906050204 22 143 0.0 0.0 0.00 0.00 0.00 99 1016.6
20260906045702 22 143 0.0 0.0 0.00 0.00 0.00 99 1016.8
20260906045157 22 143 0.0 0.0 0.00 0.00 0.00 99 1016.8
20260906044653 22 129 0.0 0.0 0.00 0.00 0.00 99 1016.9
20260906044148 22 125 0.0 0.0 0.00 0.00 0.00 99 1016.9
20260906043645 22 116 0.0 0.0 0.00 0.00 0.00 99 1016.7
20260906043140 22 109 0.0 0.0 0.00 0.00 0.00 99 1016.4
20260906042639 22 103 0.0 0.0 0.00 0.00 0.00 99 1016.6
20260906042133 22 131 0.0 0.0 0.00 0.00 0.00 99 1016.2
20260906041629 22 127 0.0 0.0 0.00 0.00 0.00 99 1016.2
20260906041124 22 108 0.0 0.0 0.00 0.00 0.00 99 1016.1
20260906040620 23 137 0.0 0.0 0.00 0.00 0.00 99 1016.3
20260906040115 23 132 0.0 0.0 0.00 0.00 0.00 99 1016.3
20260906035610 23 117 0.0 0.0 0.00 0.05 0.05 99 1016.3
20260906035106 23 117 0.0 0.0 0.00 0.05 0.05 99 1016.2
20260906034606 23 117 0.0 0.0 0.00 0.05 0.05 99 1016.7
20260906034101 23 170 0.0 0.0 0.00 0.05 0.05 99 1016.6
20260906033556 23 150 0.0 0.0 0.00 0.05 0.05 99 1016.7
20260906033051 23 150 0.0 0.0 0.00 0.05 0.05 99 1016.9
20260906032548 23 150 0.0 0.0 0.00 0.05 0.05 99 1016.9
20260906032048 23 150 0.0 0.0 0.00 0.05 0.05 98 1016.9
20260906031543 23 150 0.0 0.0 0.00 0.05 0.05 98 1016.9
20260906031039 23 150 0.0 0.0 0.00 0.05 0.05 98 1016.9
20260906030538 23 150 0.0 0.0 0.00 0.05 0.05 98 1016.7
20260906030037 23 129 0.0 0.0 0.00 0.05 0.05 97 1016.7
20260906025532 23 127 0.0 0.0 0.00 0.05 0.05 97 1016.7
20260906025030 23 146 0.0 0.0 0.00 0.05 0.05 97 1016.7
20260906024526 23 147 0.0 0.0 0.00 0.05 0.05 97 1016.4
20260906024026 23 147 0.0 0.0 0.00 0.05 0.05 97 1016.6
20260906023522 23 146 0.0 0.0 0.00 0.05 0.05 97 1016.8
20260906023017 23 101 0.0 0.0 0.00 0.05 0.05 96 1016.7
20260906022512 23 101 0.0 0.0 0.00 0.05 0.05 96 1016.9
20260906022007 23 100 0.0 0.0 0.00 0.05 0.05 96 1016.4
20260906021502 23 99 0.0 0.0 0.00 0.05 0.05 96 1016.7
20260906020957 23 121 0.0 0.0 0.00 0.05 0.05 96 1016.7
20260906020451 24 132 0.0 0.0 0.00 0.05 0.05 96 1016.4
20260906015950 24 137 0.0 0.0 0.00 0.05 0.05 96 1016.4
20260906015450 24 114 0.0 0.0 0.00 0.05 0.05 95 1016.3
20260906014950 24 113 0.0 0.0 0.00 0.05 0.05 95 1016.6
20260906014449 24 113 0.0 0.0 0.00 0.05 0.05 94 1016.4
20260906013946 25 108 0.0 0.0 0.00 0.05 0.05 94 1016.4
20260906013441 25 106 0.0 0.0 0.00 0.05 0.05 94 1016.3
20260906012936 24 104 0.0 0.0 0.00 0.05 0.05 94 1016.3
20260906012431 25 167 0.0 0.0 0.00 0.05 0.05 94 1016.6
20260906011930 25 167 0.0 0.0 0.00 0.05 0.05 94 1015.9
20260906011426 25 168 0.0 0.0 0.00 0.05 0.05 93 1016.1
20260906010921 25 167 0.0 0.0 0.00 0.05 0.05 93 1015.9
20260906010417 25 167 0.0 0.0 0.00 0.05 0.05 93 1016.1
20260906005913 25 171 0.0 0.0 0.00 0.05 0.05 92 1015.9
20260906005412 25 171 0.0 0.0 0.00 0.05 0.05 93 1015.9
20260906004910 25 171 0.0 0.0 0.00 0.05 0.05 90 1015.8
20260906004404 25 172 0.0 0.0 0.00 0.05 0.05 90 1015.5
20260906003854 25 172 0.0 0.0 0.00 0.05 0.05 89 1015.7
20260906003350 26 172 0.0 0.0 0.00 0.05 0.05 89 1015.8
20260906002845 26 171 0.0 0.0 0.00 0.05 0.05 87 1015.7
20260906002344 26 165 0.0 0.0 0.00 0.05 0.05 86 1015.5
20260906001840 26 165 0.0 0.0 0.00 0.05 0.05 85 1015.8
20260906001336 26 208 0.0 0.0 0.00 0.05 0.05 85 1015.6
20260906000831 26 208 0.0 0.0 0.00 0.05 0.05 84 1015.6
20260906000326 27 208 0.0 0.0 0.00 0.05 0.05 83 1015.5
20260905235826 27 208 0.0 0.0 0.00 0.05 0.05 82 1015.4
20260905235326 27 208 0.0 0.0 0.00 0.05 0.05 82 1015.4
20260905234821 27 210 0.0 0.0 0.00 0.05 0.05 80 1015.4
20260905234316 27 231 0.0 0.0 0.00 0.05 0.05 80 1015.3
20260905233811 28 220 0.0 0.0 0.00 0.05 0.05 79 1015.4
20260905233306 28 196 0.0 0.0 0.00 0.05 0.05 78 1015.3
20260905232805 29 234 0.0 0.0 0.00 0.05 0.05 76 1015.5
20260905232305 29 253 0.0 1.6 0.00 0.05 0.05 75 1015.5
20260905231757 29 228 0.0 0.0 0.00 0.05 0.05 76 1015.3
20260905231252 30 257 4.8 4.8 0.00 0.05 0.05 73 1015.1
20260905230748 30 212 0.0 0.0 0.00 0.05 0.05 74 1015.4
20260905230246 30 207 0.0 0.0 0.00 0.05 0.05 72 1015.4
20260905225745 30 257 1.6 1.6 0.00 0.05 0.05 71 1015.3
20260905225241 30 197 0.0 0.0 0.00 0.05 0.05 73 1015.5
20260905224739 30 255 3.2 3.2 0.00 0.05 0.05 71 1015.7
20260905224236 30 270 4.8 4.8 0.00 0.05 0.05 70 1015.5
20260905223731 30 283 3.2 3.2 0.00 0.05 0.05 70 1015.7
20260905223228 31 275 3.2 4.8 0.00 0.05 0.05 69 1015.8
20260905222724 31 259 3.2 4.8 0.00 0.05 0.05 68 1016.0
20260905222222 31 271 4.8 4.8 0.00 0.05 0.05 67 1015.7
20260905221719 31 287 3.2 3.2 0.00 0.05 0.05 68 1016.0
20260905221216 31 237 1.6 3.2 0.00 0.05 0.05 68 1015.8
20260905220711 31 312 4.8 4.8 0.00 0.05 0.05 68 1016.1
20260905220207 31 349 4.8 4.8 0.00 0.05 0.05 68 1016.1
20260905215706 31 289 4.8 4.8 0.00 0.05 0.05 67 1015.9
20260905215202 31 287 3.2 3.2 0.00 0.05 0.05 67 1015.9
20260905214658 31 301 4.8 4.8 0.00 0.05 0.05 67 1015.8
20260905214153 31 272 3.2 3.2 0.00 0.05 0.05 67 1015.9
20260905213648 31 282 4.8 8.0 0.00 0.05 0.05 67 1015.8
20260905213144 31 230 3.2 3.2 0.00 0.05 0.05 65 1015.8
20260905212639 31 258 4.8 4.8 0.00 0.05 0.05 65 1015.8
20260905212138 31 173 4.8 4.8 0.00 0.05 0.05 66 1015.9
20260905211633 31 290 4.8 8.0 0.00 0.05 0.05 67 1015.7
20260905211128 31 196 4.8 4.8 0.00 0.05 0.05 66 1015.8
20260905210625 31 289 4.8 4.8 0.00 0.05 0.05 65 1015.6
20260905210119 31 232 3.2 3.2 0.00 0.05 0.05 67 1015.6
20260905205619 31 299 6.4 8.0 0.00 0.05 0.05 64 1015.6
20260905205118 31 181 4.8 4.8 0.00 0.05 0.05 68 1015.5
20260905204618 31 204 3.2 4.8 0.00 0.05 0.05 68 1015.7
20260905204113 31 52 4.8 4.8 0.00 0.05 0.05 68 1015.9
20260905203608 31 294 4.8 4.8 0.00 0.05 0.05 67 1015.9
20260905203103 30 283 3.2 3.2 0.00 0.05 0.05 70 1015.9
20260905202054 31 263 8.0 8.0 0.00 0.05 0.05 68 1015.8
20260905201549 31 315 4.8 4.8 0.00 0.05 0.05 67 1015.7
20260905201049 30 271 4.8 8.0 0.00 0.05 0.05 66 1015.7
20260905200544 31 244 3.2 3.2 0.00 0.05 0.05 67 1016.0
20260905200038 30 227 1.6 3.2 0.00 0.05 0.05 66 1016.0
20260905195532 30 27 3.2 3.2 0.00 0.05 0.05 69 1016.2
20260905195028 30 61 6.4 8.0 0.00 0.05 0.05 71 1016.2
20260905194527 30 258 4.8 4.8 0.00 0.05 0.05 71 1016.1
20260905194027 30 229 4.8 8.0 0.00 0.05 0.05 69 1016.2
20260905193522 30 256 3.2 3.2 0.00 0.05 0.05 66 1016.3
20260905193017 30 106 1.6 1.6 0.00 0.05 0.05 65 1016.4
20260905192512 31 216 1.6 1.6 0.00 0.05 0.05 62 1016.4
20260905192009 30 342 1.6 1.6 0.00 0.05 0.05 65 1016.6
20260905191507 30 32 3.2 3.2 0.00 0.05 0.05 64 1016.6
20260905191007 30 63 0.0 1.6 0.00 0.05 0.05 66 1016.4
20260905190504 30 131 1.6 3.2 0.00 0.05 0.05 66 1017.0
20260905190004 30 182 1.6 1.6 0.00 0.05 0.05 70 1017.4
20260905185458 28 112 3.2 4.8 0.00 0.05 0.05 68 1017.3
20260905184957 28 81 4.8 4.8 0.00 0.05 0.05 70 1017.1
20260905184452 28 277 3.2 3.2 0.00 0.05 0.05 72 1017.4
20260905183951 28 72 3.2 3.2 0.00 0.05 0.05 72 1017.6
20260905183451 29 99 1.6 1.6 0.00 0.05 0.05 70 1017.8
20260905182946 28 96 4.8 8.0 0.00 0.05 0.05 71 1018.0
20260905182445 28 149 0.0 0.0 0.00 0.05 0.05 73 1018.2
20260905181940 28 72 3.2 8.0 0.00 0.05 0.05 75 1018.0
20260905181435 28 122 1.6 1.6 0.00 0.05 0.05 76 1018.3
20260905180934 27 98 3.2 3.2 0.00 0.05 0.05 75 1018.4
20260905180429 27 133 4.8 4.8 0.00 0.05 0.05 77 1018.4
20260905175924 27 113 8.0 11.3 0.00 0.05 0.05 79 1018.3
20260905175424 26 80 0.0 1.6 0.00 0.05 0.05 82 1018.9
20260905174919 26 151 1.6 1.6 0.00 0.05 0.05 83 1019.1
20260905174415 25 152 1.6 1.6 0.00 0.05 0.05 87 1019.1
20260905173910 24 98 1.6 1.6 0.00 0.05 0.05 89 1019.3
20260905173407 24 119 1.6 3.2 0.00 0.05 0.05 93 1019.4
20260905172907 24 100 1.6 3.2 0.00 0.05 0.05 94 1019.4
20260905172404 23 96 3.2 3.2 0.00 0.05 0.05 94 1019.6
20260905171901 23 122 1.6 1.6 0.00 0.05 0.05 95 1019.7
20260905171357 23 114 0.0 0.0 0.00 0.05 0.05 96 1019.4
20260905170854 23 82 1.6 3.2 0.00 0.05 0.05 95 1019.7
20260905170349 23 90 0.0 0.0 0.00 0.05 0.05 95 1019.3
20260905165848 23 138 0.0 0.0 0.00 0.05 0.05 94 1019.2
20260905165344 23 232 0.0 0.0 0.00 0.05 0.05 94 1019.0
20260905164838 23 313 1.6 3.2 0.00 0.05 0.05 95 1019.4
20260905164333 23 199 0.0 0.0 0.00 0.05 0.05 97 1019.3
20260905163829 23 142 0.0 0.0 0.00 0.05 0.05 95 1019.2
20260905163325 23 81 0.0 0.0 0.00 0.05 0.05 94 1019.4
20260905162821 23 188 1.6 3.2 0.00 0.05 0.05 96 1019.3
20260905162321 23 315 0.0 3.2 0.00 0.05 0.05 95 1019.7
20260905161815 23 273 3.2 3.2 0.00 0.05 0.05 95 1019.8
20260905161315 23 179 0.0 0.0 0.00 0.05 0.05 95 1019.9
20260905160813 23 182 0.0 0.0 0.00 0.05 0.05 91 1019.7
20260905160308 24 261 9.7 14.5 0.00 0.05 0.05 90 1020.4
20260905155802 25 300 8.0 8.0 0.18 0.05 0.05 89 1020.0
20260905155301 25 291 4.8 4.8 0.30 0.05 0.05 87 1019.8
20260905154755 26 301 4.8 8.0 0.13 0.03 0.03 85 1019.8
20260905154251 26 150 0.0 0.0 0.00 0.00 0.00 81 1019.6
20260905153746 26 63 0.0 0.0 0.00 0.00 0.00 80 1019.7
20260905153242 27 204 0.0 1.6 0.00 0.00 0.00 85 1020.2
20260905152736 27 256 0.0 0.0 0.00 0.00 0.00 85 1019.9
20260905152231 27 91 0.0 0.0 0.00 0.00 0.00 84 1018.8
20260905151731 28 97 0.0 0.0 0.00 0.00 0.00 82 1018.7
20260905151227 28 208 0.0 0.0 0.00 0.00 0.00 79 1018.9
20260905150726 28 198 0.0 0.0 0.00 0.00 0.00 78 1018.7
20260905150226 28 193 0.0 0.0 0.00 0.00 0.00 80 1018.7
20260905145724 28 306 0.0 0.0 0.00 0.00 0.00 82 1018.5
20260905145219 27 180 0.0 0.0 0.00 0.00 0.00 83 1018.5
20260905144717 28 188 0.0 0.0 0.00 0.00 0.00 81 1018.4
20260905144212 28 318 0.0 0.0 0.00 0.00 0.00 79 1018.2
20260905143712 28 131 0.0 0.0 0.00 0.00 0.00 80 1018.1
20260905143206 28 132 0.0 0.0 0.00 0.00 0.00 79 1018.2
20260905142704 28 93 0.0 0.0 0.00 0.00 0.00 80 1018.1
20260905142159 27 133 0.0 0.0 0.00 0.00 0.00 80 1018.4
20260905141654 27 132 0.0 0.0 0.00 0.00 0.00 84 1018.4
20260905141150 27 308 0.0 0.0 0.00 0.00 0.00 84 1018.3
20260905140646 27 357 0.0 0.0 0.00 0.00 0.00 84 1018.6
20260905140145 27 59 0.0 0.0 0.00 0.00 0.00 81 1018.2
20260905135640 27 86 0.0 0.0 0.00 0.00 0.00 83 1018.7
20260905135136 27 107 0.0 0.0 0.00 0.00 0.00 82 1018.7
20260905134630 27 119 0.0 0.0 0.00 0.00 0.00 84 1018.9
20260905134129 27 91 0.0 0.0 0.00 0.00 0.00 82 1018.9
20260905133625 27 104 0.0 0.0 0.00 0.00 0.00 85 1018.8
20260905133125 26 113 0.0 0.0 0.00 0.00 0.00 85 1018.8
20260905132624 26 118 0.0 0.0 0.00 0.00 0.00 86 1018.9
20260905132119 25 108 0.0 0.0 0.00 0.00 0.00 87 1018.8
20260905131614 25 100 0.0 0.0 0.00 0.00 0.00 87 1018.9
20260905131110 26 112 0.0 0.0 0.00 0.00 0.00 86 1018.8
20260905130609 26 87 0.0 0.0 0.00 0.00 0.00 87 1018.8
20260905130104 25 114 0.0 0.0 0.00 0.00 0.00 89 1019.0
20260905125603 25 110 0.0 0.0 0.00 0.00 0.00 89 1019.1
20260905125059 25 106 0.0 0.0 0.00 0.00 0.00 88 1019.1
20260905124555 25 98 0.0 0.0 0.00 0.00 0.00 91 1019.1
20260905124051 24 98 0.0 0.0 0.00 0.00 0.00 92 1019.3
20260905123546 24 108 0.0 0.0 0.00 0.00 0.00 92 1019.2
20260905123043 23 101 0.0 0.0 0.00 0.00 0.00 93 1019.0
20260905122543 23 106 0.0 0.0 0.00 0.00 0.00 93 1019.1
20260905122037 23 111 0.0 0.0 0.00 0.00 0.00 95 1019.0
20260905121532 23 141 0.0 0.0 0.00 0.00 0.00 96 1018.9
20260905121027 22 102 0.0 0.0 0.00 0.00 0.00 96 1019.0
20260905120526 22 90 0.0 0.0 0.00 0.00 0.00 97 1018.9
20260905120022 22 122 0.0 0.0 0.00 0.00 0.00 99 1018.8
20260905115521 21 122 0.0 0.0 0.00 0.00 0.00 99 1018.7
20260905115016 21 108 0.0 0.0 0.00 0.00 0.00 99 1018.8
20260905114515 21 127 0.0 0.0 0.00 0.00 0.00 99 1018.6
20260905114014 21 136 0.0 0.0 0.00 0.00 0.00 99 1018.6
20260905113509 21 152 0.0 0.0 0.00 0.00 0.00 99 1018.6
20260905113005 21 152 0.0 0.0 0.00 0.00 0.00 99 1018.5
20260905112500 21 153 0.0 0.0 0.00 0.00 0.00 99 1018.3
20260905111955 21 119 0.0 0.0 0.00 0.00 0.00 99 1018.4
20260905111450 21 116 0.0 0.0 0.00 0.00 0.00 99 1018.3
20260905110949 21 116 0.0 0.0 0.00 0.00 0.00 99 1018.5
20260905110448 20 111 0.0 0.0 0.00 0.00 0.00 99 1018.4
20260905105943 20 106 0.0 0.0 0.00 0.00 0.00 99 1018.4
20260905105438 21 106 0.0 0.0 0.00 0.00 0.00 99 1018.4
20260905104937 21 138 0.0 0.0 0.00 0.00 0.00 99 1018.2
20260905104433 21 139 0.0 0.0 0.00 0.00 0.00 99 1018.2
20260905103933 21 157 0.0 0.0 0.00 0.00 0.00 99 1018.0
20260905103429 21 157 0.0 0.0 0.00 0.00 0.00 99 1018.0
20260905102924 21 158 0.0 0.0 0.00 0.00 0.00 99 1018.0
20260905102421 21 158 0.0 0.0 0.00 0.00 0.00 99 1018.0
20260905101915 21 161 0.0 0.0 0.00 0.00 0.00 99 1018.0
20260905101414 21 140 0.0 0.0 0.00 0.00 0.00 99 1018.2
20260905100909 21 125 0.0 0.0 0.00 0.00 0.00 99 1018.1
20260905100405 21 130 0.0 0.0 0.00 0.00 0.00 99 1018.1
20260905095904 21 130 0.0 0.0 0.00 0.00 0.00 99 1017.8
20260905095359 21 129 0.0 0.0 0.00 0.00 0.00 99 1018.0
20260905094859 21 130 0.0 0.0 0.00 0.00 0.00 99 1018.0
20260905094354 21 129 0.0 0.0 0.00 0.00 0.00 99 1017.8
20260905093853 21 129 0.0 0.0 0.00 0.00 0.00 99 1018.1
20260905093349 21 129 0.0 0.0 0.00 0.00 0.00 99 1018.0
20260905092845 21 129 0.0 0.0 0.00 0.00 0.00 99 1018.0
20260905092345 21 129 0.0 0.0 0.00 0.00 0.00 99 1017.9
20260905091840 21 129 0.0 0.0 0.00 0.00 0.00 99 1017.7
20260905091339 21 129 0.0 0.0 0.00 0.00 0.00 99 1017.8
20260905090838 21 128 0.0 0.0 0.00 0.00 0.00 99 1017.6
20260905090335 21 128 0.0 0.0 0.00 0.00 0.00 99 1017.6
20260905085834 21 128 0.0 0.0 0.00 0.00 0.00 99 1017.8
20260905085328 21 120 0.0 0.0 0.00 0.00 0.00 99 1017.5
20260905084824 21 123 0.0 0.0 0.00 0.00 0.00 99 1017.9
20260905084323 21 121 0.0 0.0 0.00 0.00 0.00 99 1017.5
20260905083818 21 119 0.0 0.0 0.00 0.00 0.00 99 1017.9
20260905083314 21 120 0.0 0.0 0.00 0.00 0.00 99 1017.9